User: anonymous   Login
Location: Ash Swamp
(41.5170°N, 74.6157°W)
Time: 06:26:44
(UTC+00:00)
Language:

CZ-4B R/B - Orbit

View from above orbital plane
View from above orbital plane
View from above satellite
View from above satellite

Ground track
Ground track

The orbit data is extracted from the following two-line orbital elements,

1 29093U 06015B   20273.54438349 +.00004649 +00000-0 +90941-4 0  9999
2 29093 097.6292 085.5085 0051700 305.7997 053.8452 15.46533659802570
Epoch (UTC): 29 September 2020 13:03:54
Eccentricity: 0.0051700
inclination: 97.6292°
perigee height: 392 km
apogee height: 462 km
right ascension of ascending node: 85.5085°
argument of perigee: 305.7997°
revolutions per day: 15.46533659
mean anomaly at epoch: 53.8452°
orbit number at epoch: 80257

The dashed part of the orbit path shows where the satellite is in the earth's shadow,  

DLR